User: anonymous   Login
Location: Unnamed
(48.6007°N, 2.4808°E)
Time: 10:02:04
(UTC+01:00)
Language:

FENGYUN 1C DEB - Orbit

View from above orbital plane
View from above orbital plane
View from above satellite
View from above satellite

Ground track
Ground track

The orbit data is extracted from the following two-line orbital elements,

1 30120U 99025RZ  23335.91022684  .00008707  00000-0  41486-2 0  9996
2 30120  98.8992  41.2763 0073518 188.4481 282.4576 14.18100406868218
Epoch (UTC): 01 December 2023 21:50:43
Eccentricity: 0.0073518
inclination: 98.8992°
perigee height: 779 km
apogee height: 885 km
right ascension of ascending node: 41.2763°
argument of perigee: 188.4481°
revolutions per day: 14.18100406
mean anomaly at epoch: 282.4576°
orbit number at epoch: 86821

The dashed part of the orbit path shows where the satellite is in the earth's shadow,  

DLR